Regional Weather Roundup
Issued by NWS Charleston, WV

Home | Current Version | Previous Version | Graphics & Text | Print | Product List | Glossary On
Versions: 1 2 3 4 5 6 7 8 9 10 11 12 13 14 15 16 17 18 19 20 21 22 23 24 25 26 27 28 29 30 31 32 33 34 35 36 37 38 39 40 41 42 43 44 45 46 47 48 49 50
000
ASUS41 KRLX 271610
RWRRLX
West Virginia Regional Weather Roundup
National Weather Service Charleston WV
1100 AM EST THU NOV 27 2014

Note: "fair" indicates few or no clouds below 12,000 feet with no
significant weather and/or obstructions to visibility.

WVZ003-271700-
Northern Panhandle of West Virginia

CITY           SKY/WX    TMP DP  RH WIND       PRES   REMARKS
WHEELING       CLOUDY    33  27  78 W9        30.09R
$$

WVZ009-271700-
Northwest West Virginia

CITY           SKY/WX    TMP DP  RH WIND       PRES   REMARKS
PARKERSBURG    CLOUDY    35  27  72 NW10      30.18R
$$

WVZ006-271700-
Western West Virginia

CITY           SKY/WX    TMP DP  RH WIND       PRES   REMARKS
HUNTINGTON     CLOUDY    34  25  69 NW8       30.21R
$$

WVZ015-271700-
West Central West Virginia

CITY           SKY/WX    TMP DP  RH WIND       PRES   REMARKS
CHARLESTON     CLOUDY    34  28  79 VRB6      30.18R
$$

WVZ022-031-271700-
North Central West Virginia

CITY           SKY/WX    TMP DP  RH WIND       PRES   REMARKS
CLARKSBURG     CLOUDY    35  31  85 NW10      30.09R
MORGANTOWN     CLOUDY    35  27  72 NW5       30.08R
$$

WVZ025-035-042-045-271700-
Southern West Virginia

CITY           SKY/WX    TMP DP  RH WIND       PRES   REMARKS
BECKLEY        CLOUDY    32  25  75 NW15G21   30.08R
LOGAN          CLOUDY    32  27  80 VRB3      30.15R
BLUEFIELD      CLOUDY    33  27  78 NW10      30.07R
LEWISBURG      CLOUDY    37  26  66 NW7       30.05R
$$

WVZ047-271700-
Northern Mountains of West Virginia

CITY           SKY/WX    TMP DP  RH WIND       PRES   REMARKS
ELKINS         MIX PCPN  33  29  85 CALM      30.05R
$$

WVZ052-271700-
Eastern Panhandle of West Virginia

CITY           SKY/WX    TMP DP  RH WIND       PRES   REMARKS
MARTINSBURG    CLOUDY    41  29  62 NW10      30.06R
PETERSBURG     CLOUDY    33  32  96 CALM      30.07R FOG
$$



USA.gov is the U.S. government's official web portal to all federal, state and local government web resources and services.